Погода в Старом Острополе

Украина / Хмельницкая область     49°48′22″N   27°33′22″E
темп.,
°C
ветер,
м/с
пор.,
м/с
влажн.,
%
обл.,
%
осадки,
мм/ч
давл.,
гПа
погр.,
м
13 мая, чт
чт1300:00+7юв369192 0.0 101299
03:00+5юв369285 0.0 1011107
06:00+5юв4891100 0.0 1009159
09:00+11ююв697135 0.0 1007647
12:00+12ююв71075100 0.0 10071133
15:00+12ююв8148191 0.1 1006900
18:00+15ю71175100 0.0 10041076
21:00+10ююв71289100 0.1 1006541
14 мая, пт
пт1400:00+9ююв5129599 0.0 1006355
03:00+8ююв4109752 0.2 1006256
06:00+8ююв499764 0.2 1005217
09:00+13ю3482100 0.2 1005378
12:00+17ю4467100 0.0 10051024
15:00+16юз677199 0.5 1005714
18:00+13ююз3886100 1.1 1005344
21:00+11юз498959 1.8 1007235
15 мая, сб
сб1500:00+9юз3691100 0.0 1008129
03:00+9ююз3592100 0.0 1008153
06:00+9юз3795100 0.2 1008433
09:00+10зюз4894100 0.3 1010489
12:00+11з5893100 0.3 1012403
15:00+15з4573100 1.1 1011907
18:00+16з246211 0.1 10111172
21:00+12юв117849 0.1 101110
16 мая, вс
вс1600:00+10юв339027 0.0 101230
03:00+9ююв349211 0.1 101359
06:00+9юв4790100 0.1 1012111
09:00+15юв6107420 0.1 1011468
12:00+19ююв6863100 0.3 10101150
15:00+20ююв6859100 1.3 10091509
18:00+19юв5868100 0.9 10081151
21:00+15юв4108130 1.0 1007168
17 мая, пн
пн1700:00+13юв4786100 0.0 1007103
03:00+11юз2292100 0.0 100715
06:00+12зсз2292100 0.2 100643
09:00+14ссв2386100 0.2 1006320
12:00+15зсз338599 0.4 1005533
15:00+13сз5896100 1.6 1006368
18:00+15сз4582100 0.4 1005632
21:00+12з22914 0.5 100510